Le nostre stazioni meteo in Italia

Pubblicità
Il mio iltempo24.it
Edinburgh/Gogarbank, Gran Bretagna (3166): Temperatura & dewpoint: 29.06.2020 23:00:00 - 05.07.2020 23:00:00 (BST)Edinburgh/Gogarbank, Gran Bretagna (3166): Temperatura -20cm & Temperatura -100cm: 29.06.2020 23:00:00 - 05.07.2020 23:00:00 (BST)Edinburgh/Gogarbank, Gran Bretagna (3166): velocità del vento & gusts: 29.06.2020 23:00:00 - 05.07.2020 23:00:00 (BST)Edinburgh/Gogarbank, Gran Bretagna (3166): direzione del vento: 29.06.2020 23:00:00 - 05.07.2020 23:00:00 (BST)Edinburgh/Gogarbank, Gran Bretagna (3166): reduced air pressure: 29.06.2020 23:00:00 - 05.07.2020 23:00:00 (BST)Edinburgh/Gogarbank, Gran Bretagna (3166): visibility: 29.06.2020 23:00:00 - 05.07.2020 23:00:00 (BST)Edinburgh/Gogarbank, Gran Bretagna (3166): ore di luce: 29.06.2020 23:00:00 - 05.07.2020 23:00:00 (BST)Edinburgh/Gogarbank, Gran Bretagna (3166): precipitazioni: 29.06.2020 23:00:00 - 05.07.2020 23:00:00 (BST)
Data & Tempo tt [°C] td [°C] tt -20cm [°C] tt -100cm [°C] ff [km/h] ff [kn] fx [km/h] fx [kn] dd ppp [hPa] vv [km] sd [min] rr [mm]
05.07.2020 23:00:00 10,5 8,2 - - 22 12 - - OSO 1003,4 50 0 0,0
05.07.2020 22:00:00 11,1 8,2 - - 26 14 - - O 1002,2 40 18 0,0
05.07.2020 21:00:00 12,0 9,0 - - 21 11 - - O 1001,1 30 36 0,0
05.07.2020 20:00:00 11,9 9,2 - - 22 12 - - O 1000,0 45 36 0,0
05.07.2020 19:00:00 12,2 11,2 - - 15 8 - - OSO 999,5 17 6 0,8
05.07.2020 18:00:00 12,3 9,4 - - 21 11 - - OSO 999,3 40 12 0,6
05.07.2020 17:00:00 10,9 7,2 - - 34 18 57 31 O 999,5 7 24 0,4
05.07.2020 16:00:00 14,2 10,4 - - 26 14 50 27 OSO 998,9 20 18 0,2
05.07.2020 15:00:00 13,6 9,3 - - 34 18 54 29 OSO 999,1 30 30 0,0
05.07.2020 14:00:00 14,2 9,6 - - 34 18 52 28 OSO 999,0 30 42 0,0
05.07.2020 13:00:00 11,9 10,9 - - 24 13 52 28 OSO 999,4 40 12 2,0
05.07.2020 12:00:00 12,1 9,8 - - 29 16 59 32 O 999,2 5 18 0,6
05.07.2020 11:00:00 14,7 7,9 - - 39 21 68 37 OSO 998,2 30 42 0,0
05.07.2020 10:00:00 13,8 8,4 14,7 13,5 35 19 57 31 OSO 998,2 45 42 0,0
05.07.2020 09:00:00 12,8 8,8 - - 35 19 55 30 OSO 997,7 45 36 0,0
05.07.2020 08:00:00 13,2 9,3 - - 31 17 54 29 O 996,3 45 48 0,0
05.07.2020 07:00:00 13,9 10,4 - - 31 17 52 28 OSO 995,3 45 54 0,0
05.07.2020 06:00:00 12,6 10,1 - - 31 17 63 34 OSO 993,7 50 0 0,0
05.07.2020 05:00:00 13,2 10,1 - - 37 20 70 38 OSO 992,2 45 0 0,0
05.07.2020 04:00:00 13,6 11,4 - - 28 15 54 29 OSO 992,0 45 0 0,0
05.07.2020 03:00:00 15,1 13,2 - - 31 17 61 33 OSO 991,0 50 0 0,2
05.07.2020 02:00:00 15,5 14,4 - - 26 14 50 27 OSO 990,5 5 0 0,8
05.07.2020 01:00:00 15,6 14,4 - - 24 13 - - SO 991,3 13 - 0,6
05.07.2020 00:00:00 15,1 14,4 - - 21 11 - - SO 992,3 4,3 0 2,4
04.07.2020 23:00:00 14,7 13,6 - - 9 5 - - S 993,6 6 0 0,4
04.07.2020 22:00:00 14,1 13,0 - - 8 4 - - ESE 996,1 16 0 0,4
04.07.2020 21:00:00 14,3 12,4 - - 0 0 - - N 997,8 40 0 0,0
04.07.2020 20:00:00 14,9 10,9 - - 5 3 - - SO 999,7 40 0 0,0
04.07.2020 19:00:00 15,3 10,9 - - 11 6 - - OSO 1001,1 50 0 0,0
04.07.2020 18:00:00 14,8 10,8 - - 11 6 - - O 1002,0 50 0 0,0
04.07.2020 17:00:00 15,0 10,8 - - 13 7 - - OSO 1002,5 50 0 0,0
04.07.2020 16:00:00 15,2 11,5 - - 18 10 - - O 1003,0 45 6 0,0
04.07.2020 15:00:00 14,1 11,9 - - 15 8 - - O 1003,4 30 0 0,0
04.07.2020 14:00:00 14,2 11,7 - - 15 8 - - O 1003,5 45 0 0,0
04.07.2020 13:00:00 13,2 12,0 - - 9 5 - - O 1003,4 9 0 0,2
04.07.2020 12:00:00 12,6 10,8 - - 11 6 - - O 1003,7 7 0 0,2
04.07.2020 11:00:00 13,1 11,0 - - 13 7 - - O 1003,4 21 0 0,0
04.07.2020 10:00:00 13,7 9,8 14,7 13,5 13 7 - - O 1003,1 45 0 0,0
04.07.2020 09:00:00 13,2 10,1 - - 9 5 - - O 1003,2 40 30 0,0
04.07.2020 08:00:00 11,8 9,9 - - 11 6 - - OSO 1003,8 30 12 0,0
04.07.2020 07:00:00 11,2 9,9 - - 5 3 - - SO 1003,1 30 0 0,0
04.07.2020 06:00:00 10,1 9,4 - - 4 2 - - O 1003,6 30 0 0,0
04.07.2020 05:00:00 10,3 9,4 - - 4 2 - - OSO 1003,5 30 0 0,0
04.07.2020 04:00:00 10,2 9,1 - - 5 3 - - SO 1003,3 40 0 0,0
04.07.2020 03:00:00 10,1 9,1 - - 5 3 - - SO 1003,6 40 0 0,0
04.07.2020 02:00:00 9,8 9,0 - - 8 4 - - SO 1003,6 45 0 0,0
04.07.2020 01:00:00 9,9 8,8 - - 5 3 - - S 1003,9 45 - 0,0
04.07.2020 00:00:00 9,9 8,9 - - 9 5 - - SO 1004,1 50 0 0,0
03.07.2020 23:00:00 10,2 9,2 - - 9 5 - - SSO 1004,0 45 0 0,0
03.07.2020 22:00:00 11,5 10,1 - - 11 6 - - O 1003,6 50 0 0,0
03.07.2020 21:00:00 12,0 10,5 - - 18 10 - - OSO 1003,5 50 0 0,0
03.07.2020 20:00:00 12,5 11,3 - - 16 9 - - OSO 1003,0 50 0 0,0
03.07.2020 19:00:00 12,7 11,4 - - 21 11 - - OSO 1002,6 17 0 0,4
03.07.2020 18:00:00 13,3 12,4 - - 16 9 - - O 1002,6 11 0 1,0
03.07.2020 17:00:00 13,4 12,6 - - 16 9 - - O 1002,2 9 0 1,2
03.07.2020 16:00:00 14,9 14,2 - - 15 8 - - OSO 1001,6 3,8 0 0,6
03.07.2020 15:00:00 15,1 13,9 - - 18 10 - - SO 1001,7 14 0 0,8
03.07.2020 14:00:00 14,6 13,4 - - 15 8 - - SO 1002,2 17 0 0,4
03.07.2020 13:00:00 14,6 13,2 - - 16 9 - - SO 1002,6 9 0 0,2
03.07.2020 12:00:00 14,2 12,5 - - 21 11 - - SO 1002,7 30 0 0,0
03.07.2020 11:00:00 14,1 12,2 - - 22 12 - - SO 1002,9 20 0 0,0
03.07.2020 10:00:00 13,4 11,7 15,0 13,5 18 10 - - SO 1003,1 26 0 0,4
03.07.2020 09:00:00 12,5 11,2 - - 15 8 - - SO 1003,8 15 0 0,4
03.07.2020 08:00:00 10,9 10,6 - - 4 2 - - NO 1004,8 10 0 0,6
03.07.2020 07:00:00 10,3 10,0 - - 5 3 - - ENE 1005,5 20 0 1,2
03.07.2020 06:00:00 9,5 9,1 - - 5 3 - - ENE 1006,6 14 0 1,0
03.07.2020 05:00:00 9,3 8,5 - - 4 2 - - SO 1007,8 12 0 0,6
03.07.2020 04:00:00 9,2 7,9 - - 9 5 - - SO 1008,5 27 0 0,2
03.07.2020 03:00:00 9,8 7,9 - - 11 6 - - OSO 1009,4 18 0 0,2
03.07.2020 02:00:00 10,6 7,0 - - 9 5 - - OSO 1009,3 50 0 0,0
03.07.2020 01:00:00 10,7 6,5 - - 11 6 - - OSO 1010,1 50 - 0,0
03.07.2020 00:00:00 11,1 6,3 - - 13 7 - - OSO 1010,7 50 0 0,0
02.07.2020 23:00:00 11,7 6,5 - - 13 7 - - OSO 1010,9 50 0 0,0
02.07.2020 22:00:00 13,0 7,6 - - 21 11 - - O 1010,9 50 0 0,0
02.07.2020 21:00:00 14,2 8,5 - - 16 9 - - OSO 1010,7 45 0 0,0
02.07.2020 20:00:00 15,1 8,5 - - 13 7 - - OSO 1010,5 50 0 0,0
02.07.2020 19:00:00 15,7 8,8 - - 11 6 - - OSO 1010,4 50 6 0,0
02.07.2020 18:00:00 15,8 8,4 - - 13 7 - - SO 1010,5 50 12 0,0
02.07.2020 17:00:00 16,6 8,5 - - 8 4 - - SO 1010,7 45 6 0,0
02.07.2020 16:00:00 16,8 8,1 - - 5 3 - - SSE 1010,8 40 18 0,0
02.07.2020 15:00:00 15,8 7,3 - - 5 3 - - S 1011,2 35 0 0,0
02.07.2020 14:00:00 16,0 8,0 - - 4 2 - - NE 1011,3 35 0 0,0
02.07.2020 13:00:00 15,5 8,5 - - 4 2 - - E 1011,2 40 0 0,0
02.07.2020 12:00:00 14,6 6,4 - - 4 2 - - O 1011,1 27 0 0,0
02.07.2020 11:00:00 14,2 8,1 - - 9 5 - - NE 1011,0 35 0 0,0
02.07.2020 10:00:00 13,9 6,4 14,7 13,7 5 3 - - NE 1010,8 28 0 0,0
02.07.2020 09:00:00 12,4 6,7 - - 9 5 - - ESE 1010,4 35 18 0,0
02.07.2020 08:00:00 11,8 7,8 - - 11 6 - - E 1010,1 35 0 0,0
02.07.2020 07:00:00 11,0 7,5 - - 11 6 - - E 1009,6 45 0 0,0
02.07.2020 06:00:00 10,4 8,0 - - 8 4 - - ESE 1009,1 24 0 0,0
02.07.2020 05:00:00 10,2 7,8 - - 5 3 - - E 1008,9 27 0 0,0
02.07.2020 04:00:00 10,5 7,3 - - 4 2 - - E 1008,7 24 0 0,0
02.07.2020 03:00:00 10,7 6,9 - - 5 3 - - E 1008,6 29 0 0,0
02.07.2020 02:00:00 10,7 7,2 - - 5 3 - - E 1008,7 30 0 0,0
02.07.2020 01:00:00 10,6 7,0 - - 4 2 - - E 1008,5 35 - 0,0
02.07.2020 00:00:00 10,8 7,6 - - 5 3 - - ESE 1008,5 30 0 0,0
01.07.2020 23:00:00 11,2 7,3 - - 5 3 - - E 1008,2 35 0 0,0
01.07.2020 22:00:00 11,5 7,3 - - 9 5 - - ENE 1007,6 35 0 0,0
01.07.2020 21:00:00 11,9 6,9 - - 9 5 - - E 1007,3 30 0 0,0
01.07.2020 20:00:00 12,2 7,1 - - 15 8 - - ENE 1006,8 30 0 0,0
01.07.2020 19:00:00 12,6 7,4 - - 16 9 - - E 1006,6 35 0 0,0
01.07.2020 18:00:00 12,7 7,8 - - 11 6 - - E 1006,3 22 0 0,0
01.07.2020 17:00:00 12,6 7,9 - - 21 11 - - ENE 1006,2 26 0 0,0
01.07.2020 16:00:00 12,3 8,1 - - 22 12 - - ENE 1005,9 35 0 0,0
01.07.2020 15:00:00 12,2 9,8 - - 22 12 - - ENE 1005,5 6 0 0,0
01.07.2020 14:00:00 12,4 11,0 - - 16 9 - - E 1005,1 14 0 0,0
01.07.2020 13:00:00 11,7 10,9 - - 21 11 - - ENE 1004,8 7 0 0,0
01.07.2020 12:00:00 11,7 10,9 - - 21 11 - - ENE 1004,4 2,8 0 0,0
01.07.2020 11:00:00 12,9 11,9 - - 16 9 - - ENE 1003,6 10 0 0,0
01.07.2020 10:00:00 12,3 11,0 15,2 13,5 15 8 - - E 1003,3 11 0 0,0
01.07.2020 09:00:00 12,1 10,9 - - 21 11 - - E 1002,8 50 0 0,0
01.07.2020 08:00:00 12,5 11,6 - - 5 3 - - NNE 1002,3 6 0 0,0
01.07.2020 07:00:00 12,3 11,4 - - 4 2 - - O 1001,8 13 0 0,0
01.07.2020 06:00:00 11,9 11,2 - - 5 3 - - OSO 1001,5 15 0 0,0
01.07.2020 05:00:00 11,5 10,8 - - 9 5 - - OSO 1001,5 23 0 0,0
01.07.2020 04:00:00 11,2 10,5 - - 5 3 - - OSO 1001,5 45 0 0,0
01.07.2020 03:00:00 11,2 10,8 - - 5 3 - - OSO 1001,6 28 0 0,0
01.07.2020 02:00:00 10,4 9,5 - - 2 1 - - S 1001,7 50 0 0,0
01.07.2020 01:00:00 12,0 10,5 - - 5 3 - - SO 1001,8 50 - 0,0
01.07.2020 00:00:00 12,0 10,5 - - 9 5 - - SO 1001,9 50 0 0,0
30.06.2020 23:00:00 12,8 10,5 - - 9 5 - - SO 1002,0 50 0 0,0
30.06.2020 22:00:00 13,9 10,5 - - 11 6 - - OSO 1001,8 50 0 0,0
30.06.2020 21:00:00 15,7 10,6 - - 11 6 - - O 1001,5 50 24 0,0
30.06.2020 20:00:00 17,2 11,2 - - 13 7 - - O 1001,1 50 6 0,0
30.06.2020 19:00:00 16,3 11,9 - - 9 5 - - NO 1000,9 35 0 0,0
30.06.2020 18:00:00 17,8 10,8 - - 13 7 - - OSO 1000,8 45 12 0,0
30.06.2020 17:00:00 18,0 11,1 - - 22 12 - - O 1000,8 45 6 0,0
30.06.2020 16:00:00 18,1 11,0 - - 18 10 - - OSO 1001,2 30 42 0,0
30.06.2020 15:00:00 18,7 12,2 - - 21 11 - - OSO 1001,2 35 48 0,0
30.06.2020 14:00:00 18,0 11,6 - - 22 12 - - SO 1001,0 30 54 0,0
30.06.2020 13:00:00 17,6 11,5 - - 22 12 - - O 1001,0 50 30 0,0
30.06.2020 12:00:00 16,1 10,9 - - 21 11 - - O 1001,0 35 6 0,0
30.06.2020 11:00:00 16,2 11,3 - - 18 10 - - OSO 1000,9 35 18 0,0
30.06.2020 10:00:00 15,6 11,3 14,7 13,7 16 9 - - O 1000,7 30 6 0,0
30.06.2020 09:00:00 14,4 10,7 - - 22 12 - - O 1000,5 45 24 0,0
30.06.2020 08:00:00 13,9 10,8 - - 21 11 - - OSO 1000,1 35 42 0,0
30.06.2020 07:00:00 12,6 10,3 - - 22 12 - - O 999,8 35 0 0,0
30.06.2020 06:00:00 12,3 10,2 - - 16 9 - - OSO 999,5 50 6 0,0
30.06.2020 05:00:00 11,7 10,0 - - 15 8 - - OSO 999,4 50 0 0,0
30.06.2020 04:00:00 11,9 9,9 - - 22 12 - - OSO 999,2 50 0 0,0
30.06.2020 03:00:00 11,7 10,2 - - 18 10 - - OSO 999,1 40 0 0,0
30.06.2020 02:00:00 12,3 10,3 - - 22 12 - - OSO 999,1 50 0 0,0
30.06.2020 01:00:00 12,2 10,2 - - 22 12 - - OSO 999,0 45 - 0,0
30.06.2020 00:00:00 12,5 10,5 - - 26 14 - - OSO 998,7 45 0 0,0
29.06.2020 23:00:00 12,9 10,8 - - 24 13 - - O 998,5 50 0 0,0

tt = Temperatura
td = dewpoint
tt -20cm = Temperatura -20cm
tt -100cm = Temperatura -100cm
ff = velocità del vento
fx = gusts
dd = direzione del vento
ppp = reduced air pressure
vv = visibility
sd = ore di luce
rr = precipitazioni

Stazioni seguenti

WeatherPro
AMSI
MeteoEarth